{"data":{"norad_id":68642,"epoch":"2026-05-24T19:22:01.026912Z","epoch_age_seconds":91192,"freshness":"FRESH","line1":"1 68642U 26075G   26144.80695633  .00000040  00000+0  37306-4 0  9999","line2":"2 68642  88.9873 323.4210 0009788  72.9643 287.2585 13.59307647  6636","mean_motion":13.59307647,"eccentricity":0.0009788,"inclination_deg":88.9873,"raan_deg":323.421,"arg_perigee_deg":72.9643,"mean_anomaly_deg":287.2585,"bstar":3.7306e-5,"rev_number":663,"period_min":105.93628331144,"perigee_km":1030.9501910788,"apogee_km":1045.4684306169,"semimajor_km":7416.3463108478,"source":"CELESTRAK","updated_at":"2026-05-25T13:38:07.991267Z"}}